Location: Kershaw
(34.5481°N, 80.5823°W)
Time: 04:35:22
(UTC+00:00)

Explorer 7 - Pass Details

Date: 10 October 2022
Orbit: 481 x 665 km, 50.3° (Epoch: 30 November)

Event Time Altitude Azimuth Distance (km) Brightness Sun altitude
Rises 16:34:56 0° 311° (NW) 3,003 10.2 47.8°
Reaches altitude 10° 16:38:50 10° 342° (NNW) 2,081 9.5 48.0°
Maximum altitude 16:40:44 12° 6° (N) 1,931 9.3 48.1°
Drops below altitude 10° 16:42:37 10° 29° (NNE) 2,060 9.5 48.2°
Sets 16:46:26 0° 60° (ENE) 2,937 10.4 48.3°
